Weather History for Altus AFB, OK

Change the Weather History Date:

Saturday, April 20, 2013

  Actual Average Record
Temperature  
Mean Temperature 54 °F -  
Max Temperature 72 °F 73 °F 91 °F (1997)
Min Temperature 37 °F 48 °F 37 °F (2013)
Degree Days  
Heating Degree Days 10    
Growing Degree Days 4 (Base 50)    
Moisture  
Dew Point 33 °F    
Average Humidity 48    
Maximum Humidity 88    
Minimum Humidity 22    
Precipitation  
Precipitation 0.00 in - - ()
Sea Level Pressure  
Sea Level Pressure 30.00 in    
Wind  
Wind Speed 13 mph (SE)    
Max Wind Speed 29 mph    
Max Gust Speed 37 mph    
Visibility 10 miles    
Events      
Averages and records for this station are not official NWS values.
T = Trace of Precipitation, MM = Missing Value Source: NWS Daily Summary

Daily Weather History Graph

Daily Weather History Graph

Search for Another Location

Airport:

Trip Planner

Search our weather history database for the weather conditions in past years. The results will help you decide how hot, cold, wet, or windy it might be!

Date:

Astronomy

Apr. 20, 2013 Rise Set
Actual Time 6:58 AM CDT 8:13 PM CDT
Civil Twilight 6:32 AM CDT 8:39 PM CDT
Nautical Twilight 6:01 AM CDT 9:11 PM CDT
Astronomical Twilight 5:28 AM CDT 9:43 PM CDT
Moon 3:11 PM CDT (4/20) 3:35 AM CDT (4/20)
Length of Visible Light 14h 07m
Length of Day
13h 14m
Waxing Gibbous, 71% of the Moon is Illuminated
Apr 20
Waxing Gibbous
Apr 25
Full
May 2
Last Quarter
May 9
New
May 17
First Quarter

Hourly Weather History & Observations

Time (CDT) Temp. Windchill Dew Point Humidity Pressure Visibility Wind Dir Wind Speed Gust Speed Precip Events Conditions
12:58 AM 46.8 °F - 32.0 °F 57% 30.06 in 10.0 mi SSE 10.4 mph - N/A   Clear
1:58 AM 43.7 °F 39.1 °F 32.7 °F 65% 30.07 in 10.0 mi SSE 8.1 mph - N/A   Clear
2:58 AM 39.6 °F 35.4 °F 33.6 °F 79% 30.06 in 10.0 mi ESE 5.8 mph - N/A   Partly Cloudy
3:58 AM 39.9 °F 35.1 °F 33.8 °F 79% 30.05 in 10.0 mi ESE 6.9 mph - N/A   Partly Cloudy
4:58 AM 37.2 °F 33.6 °F 33.1 °F 85% 30.05 in 10.0 mi East 4.6 mph - N/A   Clear
5:58 AM 37.6 °F 35.1 °F 33.6 °F 86% 30.05 in 10.0 mi ESE 3.5 mph - N/A   Clear
6:58 AM 38.7 °F 36.3 °F 34.7 °F 86% 30.05 in 10.0 mi ESE 3.5 mph - N/A   Clear
7:58 AM 40.5 °F - 37.2 °F 88% 30.08 in 10.0 mi SE 2.3 mph - N/A   Clear
8:58 AM 46.9 °F - 36.0 °F 66% 30.09 in 10.0 mi SSE 11.5 mph - N/A   Clear
9:58 AM 53.2 °F - 35.2 °F 51% 30.07 in 10.0 mi South 16.1 mph - N/A   Partly Cloudy
10:58 AM 62.1 °F - 32.7 °F 33% 30.06 in 10.0 mi South 23.0 mph 28.8 mph N/A   Clear
11:58 AM 66.4 °F - 32.0 °F 28% 30.02 in 10.0 mi SSE 25.3 mph 35.7 mph N/A   Clear
12:58 PM 68.4 °F - 31.8 °F 26% 30.00 in 10.0 mi South 28.8 mph 35.7 mph N/A   Clear
1:58 PM 70.3 °F - 32.0 °F 24% 29.96 in 10.0 mi SSE 27.6 mph 36.8 mph N/A   Clear
2:58 PM 71.6 °F - 31.5 °F 23% 29.94 in 10.0 mi South 27.6 mph 34.5 mph N/A   Clear
3:58 PM 72.1 °F - 31.3 °F 22% 29.92 in 10.0 mi SSE 26.5 mph 34.5 mph N/A   Clear
4:58 PM 72.3 °F - 31.8 °F 22% 29.88 in 10.0 mi SSE 21.9 mph 33.4 mph N/A   Clear
5:58 PM 71.6 °F - 32.9 °F 24% 29.89 in 10.0 mi SSE 23.0 mph 29.9 mph N/A   Clear
6:58 PM 68.5 °F - 32.7 °F 27% 29.88 in 10.0 mi SE 20.7 mph - N/A   Clear
7:58 PM 64.4 °F - 31.8 °F 30% 29.90 in 10.0 mi SE 16.1 mph - N/A   Clear
8:58 PM 61.2 °F - 29.3 °F 30% 29.92 in 10.0 mi SE 20.7 mph 27.6 mph N/A   Clear
9:58 PM 58.5 °F - 32.5 °F 38% 29.96 in 10.0 mi SE 17.3 mph 26.5 mph N/A   Clear
10:58 PM 56.7 °F - 33.4 °F 42% 29.96 in 10.0 mi SE 15.0 mph - N/A   Clear
11:58 PM 54.5 °F - 34.9 °F 48% 29.99 in 10.0 mi SE 11.5 mph - N/A   Clear